< < Back
Terminal Aerodrome Forecast


Current Version              Previous Versions:   1  2  3  4  5  6  7  8  9  

Terminal Aerodrome Forecast

335
FTUS44 KOHX 210500
TAFCSV
TAF
KCSV 210526Z 2106/2206 24005KT P6SM SKC
     FM210700 30004KT P6SM SCT050
      TEMPO 2109/2112 4SM BR
     FM211500 32008KT P6SM BKN050=



Latest METAR

603
SAUS70 KWBC 211300 RRC
MTRCSV
METAR KCSV 211253Z AUTO 26006KT 7SM CLR 10/08 A3004 RMK AO2 SLP169
T01000083


USA.gov is the U.S. government's official web portal to all federal, state and local government web resources and services.